DAL726 KATL-KBOS

Flight info

Callsign DAL726
Flight time 2h 14m
Altitude 35000
Route PLMMR3 BURGG Q22 RBV Q419 JFK ROBUC3
Aircraft B739/M-SDE2E3FGHIRWXY/LB1

Departure

Time 2026-05-05 00:45
Airport Hartsfield Jackson Atlanta International Airport (KATL)

Arrival

Time 2026-05-05 02:59
Airport Boston Logan International Airport (KBOS)
Time Latitude Longitude Altitude Speed Heading
2026-05-04 23:57 33.63872 -84.43537 1005 ft 0 kts 269°
2026-05-05 00:17 33.63870 -84.43528 1005 ft 4 kts 223°
2026-05-05 00:17 33.63876 -84.43513 1005 ft 4 kts 261°
2026-05-05 00:18 33.63883 -84.43482 1005 ft 4 kts 240°
2026-05-05 00:18 33.63899 -84.43460 1005 ft 4 kts 197°
2026-05-05 00:18 33.63911 -84.43458 1005 ft 1 kts 181°
2026-05-05 00:18 33.63913 -84.43458 1005 ft 0 kts 181°
2026-05-05 00:28 33.63909 -84.43458 1005 ft 4 kts 181°
2026-05-05 00:28 33.63859 -84.43458 1005 ft 0 kts 180°
2026-05-05 00:40 33.63858 -84.43458 1005 ft 3 kts 180°
2026-05-05 00:40 33.63781 -84.43453 1005 ft 15 kts 175°
2026-05-05 00:41 33.63692 -84.43434 1005 ft 19 kts 149°
2026-05-05 00:41 33.63665 -84.43224 1005 ft 34 kts 91°
2026-05-05 00:41 33.63664 -84.42875 1005 ft 49 kts 90°
2026-05-05 00:41 33.63654 -84.42452 1006 ft 50 kts 89°
2026-05-05 00:42 33.63654 -84.42047 1006 ft 47 kts 90°
2026-05-05 00:42 33.63655 -84.41663 1005 ft 45 kts 90°
2026-05-05 00:42 33.63655 -84.41297 1005 ft 43 kts 90°
2026-05-05 00:42 33.63655 -84.40962 1005 ft 31 kts 89°
2026-05-05 00:43 33.63587 -84.40830 1006 ft 8 kts 176°
2026-05-05 00:43 33.63570 -84.40829 1006 ft 0 kts 179°
2026-05-05 00:43 33.63516 -84.40830 1006 ft 11 kts 183°
2026-05-05 00:43 33.63471 -84.40925 1006 ft 22 kts 269°
2026-05-05 00:44 33.63470 -84.40943 1006 ft 0 kts 269°
2026-05-05 00:44 33.63470 -84.40946 1006 ft 4 kts 270°
2026-05-05 00:44 33.63470 -84.41200 1004 ft 64 kts 269°
2026-05-05 00:44 33.63469 -84.42005 1006 ft 126 kts 270°
2026-05-05 00:45 33.63466 -84.43259 1005 ft 173 kts 269°
2026-05-05 00:45 33.63474 -84.44844 1197 ft 198 kts 271°
2026-05-05 00:45 33.63500 -84.46474 1947 ft 192 kts 268°
2026-05-05 00:45 33.63394 -84.47980 2793 ft 179 kts 248°
2026-05-05 00:46 33.62839 -84.49266 3508 ft 169 kts 238°
2026-05-05 00:46 33.62235 -84.50556 3852 ft 189 kts 240°
2026-05-05 00:46 33.61575 -84.52034 4060 ft 211 kts 240°
2026-05-05 00:46 33.60855 -84.53673 4282 ft 231 kts 240°
2026-05-05 00:47 33.60091 -84.55433 4654 ft 248 kts 240°
2026-05-05 00:47 33.59063 -84.57171 5078 ft 260 kts 219°
2026-05-05 00:47 33.57507 -84.58230 5907 ft 260 kts 197°
2026-05-05 00:47 33.55709 -84.58512 6632 ft 265 kts 181°
2026-05-05 00:48 33.53848 -84.58500 7332 ft 270 kts 181°
2026-05-05 00:48 33.51953 -84.58481 8051 ft 274 kts 181°
2026-05-05 00:48 33.50040 -84.58467 8784 ft 277 kts 180°
2026-05-05 00:48 33.48160 -84.58020 9441 ft 286 kts 155°
2026-05-05 00:49 33.46583 -84.56526 10130 ft 295 kts 129°
2026-05-05 00:49 33.45684 -84.54248 10416 ft 319 kts 101°
2026-05-05 00:49 33.45555 -84.51503 10609 ft 341 kts 91°
2026-05-05 00:49 33.45578 -84.48817 10782 ft 359 kts 90°
2026-05-05 00:50 33.45616 -84.45775 11172 ft 370 kts 90°
2026-05-05 00:50 33.45630 -84.42666 11771 ft 375 kts 91°
2026-05-05 00:50 33.45621 -84.39538 12433 ft 377 kts 91°
2026-05-05 00:50 33.45631 -84.36382 13104 ft 381 kts 86°
2026-05-05 00:51 33.46301 -84.33308 13669 ft 386 kts 63°
2026-05-05 00:51 33.47843 -84.30677 14262 ft 388 kts 46°
2026-05-05 00:51 33.49736 -84.28355 14803 ft 391 kts 44°
2026-05-05 00:51 33.51675 -84.26044 15341 ft 395 kts 44°
2026-05-05 00:52 33.53640 -84.23711 15871 ft 399 kts 44°
2026-05-05 00:52 33.55618 -84.21348 16407 ft 403 kts 44°
2026-05-05 00:52 33.57611 -84.18950 16919 ft 408 kts 44°
2026-05-05 00:52 33.59588 -84.16555 17421 ft 412 kts 44°
2026-05-05 00:53 33.61611 -84.14093 17924 ft 416 kts 44°
2026-05-05 00:53 33.63648 -84.11606 18431 ft 419 kts 44°
2026-05-05 00:53 33.65701 -84.09095 18903 ft 422 kts 44°
2026-05-05 00:53 33.67763 -84.06570 19403 ft 425 kts 44°
2026-05-05 00:54 33.69837 -84.04028 19899 ft 427 kts 44°
2026-05-05 00:54 33.71927 -84.01466 20378 ft 430 kts 44°
2026-05-05 00:54 33.74026 -83.98891 20848 ft 433 kts 43°
2026-05-05 00:54 33.76139 -83.96297 21319 ft 436 kts 43°
2026-05-05 00:55 33.78263 -83.93688 21779 ft 438 kts 43°
2026-05-05 00:55 33.80404 -83.91055 22246 ft 441 kts 43°
2026-05-05 00:55 33.82555 -83.88408 22730 ft 443 kts 43°
2026-05-05 00:55 33.84684 -83.85786 23175 ft 445 kts 43°
2026-05-05 00:56 33.86883 -83.83076 23608 ft 449 kts 43°
2026-05-05 00:56 33.89044 -83.80410 23980 ft 452 kts 43°
2026-05-05 00:56 33.91246 -83.77692 24365 ft 454 kts 43°
2026-05-05 00:56 33.93455 -83.74963 24732 ft 456 kts 43°
2026-05-05 00:57 33.95664 -83.72209 25101 ft 459 kts 45°
2026-05-05 00:57 33.97712 -83.69236 25448 ft 463 kts 50°
2026-05-05 00:57 33.99632 -83.66098 25787 ft 466 kts 52°
2026-05-05 00:57 34.01508 -83.62900 26140 ft 468 kts 53°
2026-05-05 00:58 34.03391 -83.59683 26488 ft 470 kts 52°
2026-05-05 00:58 34.05298 -83.56468 26832 ft 473 kts 52°
2026-05-05 00:58 34.07238 -83.53245 27125 ft 476 kts 51°
2026-05-05 00:58 34.09205 -83.50010 27437 ft 479 kts 51°
2026-05-05 00:59 34.11185 -83.46770 27747 ft 481 kts 51°
2026-05-05 00:59 34.13182 -83.43507 28053 ft 483 kts 51°
2026-05-05 00:59 34.15156 -83.40281 28360 ft 485 kts 51°
2026-05-05 00:59 34.17165 -83.36991 28677 ft 487 kts 51°
2026-05-05 01:00 34.19179 -83.33689 28991 ft 490 kts 51°
2026-05-05 01:00 34.21199 -83.30370 29369 ft 490 kts 51°
2026-05-05 01:00 34.23215 -83.27055 29848 ft 488 kts 51°
2026-05-05 01:00 34.25219 -83.23755 30304 ft 486 kts 51°
2026-05-05 01:01 34.27215 -83.20466 30654 ft 485 kts 51°
2026-05-05 01:01 34.29218 -83.17165 30972 ft 486 kts 51°
2026-05-05 01:01 34.31216 -83.13870 31244 ft 487 kts 51°
2026-05-05 01:01 34.33231 -83.10564 31541 ft 487 kts 51°
2026-05-05 01:02 34.35247 -83.07272 31910 ft 486 kts 51°
2026-05-05 01:02 34.37257 -83.03993 32293 ft 484 kts 51°
2026-05-05 01:02 34.39259 -83.00724 32625 ft 483 kts 51°
2026-05-05 01:02 34.41236 -82.97492 32919 ft 483 kts 51°
2026-05-05 01:03 34.43231 -82.94224 33201 ft 483 kts 51°
2026-05-05 01:03 34.45223 -82.90956 33532 ft 481 kts 51°
2026-05-05 01:03 34.47210 -82.87693 33873 ft 480 kts 51°
2026-05-05 01:03 34.49189 -82.84437 34146 ft 480 kts 51°
2026-05-05 01:04 34.51168 -82.81181 34404 ft 479 kts 51°
2026-05-05 01:04 34.55117 -82.74674 34846 ft 479 kts 51°
2026-05-05 01:04 34.57099 -82.71405 34982 ft 481 kts 51°
2026-05-05 01:05 34.61059 -82.64860 35033 ft 480 kts 51°
2026-05-05 01:05 34.64999 -82.58336 35039 ft 478 kts 51°
2026-05-05 01:06 34.68885 -82.51841 35031 ft 477 kts 51°
2026-05-05 01:06 34.72731 -82.45269 35047 ft 477 kts 51°
2026-05-05 01:07 34.76568 -82.38694 35061 ft 477 kts 51°
2026-05-05 01:07 34.80414 -82.32106 35062 ft 478 kts 51°
2026-05-05 01:08 34.84279 -82.25484 35050 ft 479 kts 51°
2026-05-05 01:08 34.88120 -82.18891 35053 ft 481 kts 51°
2026-05-05 01:09 34.91995 -82.12226 35051 ft 483 kts 51°
2026-05-05 01:09 34.95882 -82.05525 35047 ft 485 kts 51°
2026-05-05 01:10 34.99122 -81.99929 35059 ft 486 kts 51°
2026-05-05 01:10 35.03023 -81.93185 35045 ft 487 kts 51°
2026-05-05 01:11 35.07705 -81.85449 35033 ft 486 kts 49°
2026-05-05 01:11 35.11162 -81.79961 35024 ft 486 kts 49°
2026-05-05 01:12 35.15256 -81.73425 35005 ft 486 kts 49°
2026-05-05 01:12 35.19337 -81.66840 35036 ft 485 kts 49°
2026-05-05 01:13 35.23402 -81.60247 35047 ft 485 kts 49°
2026-05-05 01:13 35.27461 -81.53650 35004 ft 484 kts 49°
2026-05-05 01:14 35.31485 -81.47100 35011 ft 484 kts 49°
2026-05-05 01:14 35.35528 -81.40510 35015 ft 483 kts 49°
2026-05-05 01:15 35.39561 -81.33923 35011 ft 483 kts 49°
2026-05-05 01:15 35.43591 -81.27329 35029 ft 483 kts 49°
2026-05-05 01:16 35.47618 -81.20725 35032 ft 483 kts 49°
2026-05-05 01:16 35.51642 -81.14114 35039 ft 483 kts 49°
2026-05-05 01:17 35.55633 -81.07546 35024 ft 483 kts 50°
2026-05-05 01:17 35.59643 -81.00937 35026 ft 482 kts 49°
2026-05-05 01:18 35.63655 -80.94325 35018 ft 482 kts 49°
2026-05-05 01:18 35.67659 -80.87712 35039 ft 482 kts 50°
2026-05-05 01:19 35.71656 -80.81096 35030 ft 482 kts 50°
2026-05-05 01:19 35.75630 -80.74504 35032 ft 482 kts 50°
2026-05-05 01:20 35.79629 -80.67859 35012 ft 482 kts 50°
2026-05-05 01:20 35.83622 -80.61210 35014 ft 482 kts 50°
2026-05-05 01:21 35.87585 -80.54598 35024 ft 482 kts 50°
2026-05-05 01:21 35.91569 -80.47938 34996 ft 483 kts 50°
2026-05-05 01:22 35.95552 -80.41268 34999 ft 483 kts 50°
2026-05-05 01:22 35.99533 -80.34583 34989 ft 483 kts 50°
2026-05-05 01:23 36.03502 -80.27888 34997 ft 483 kts 50°
2026-05-05 01:23 36.07466 -80.21187 34990 ft 483 kts 50°
2026-05-05 01:24 36.11425 -80.14484 35004 ft 483 kts 50°
2026-05-05 01:24 36.15360 -80.07810 34988 ft 483 kts 50°
2026-05-05 01:25 36.19316 -80.01094 35015 ft 483 kts 50°
2026-05-05 01:25 36.23275 -79.94392 35015 ft 482 kts 50°
2026-05-05 01:26 36.27237 -79.87677 35010 ft 482 kts 50°
2026-05-05 01:26 36.31187 -79.80965 35031 ft 482 kts 50°
2026-05-05 01:27 36.35135 -79.74242 35016 ft 482 kts 50°
2026-05-05 01:27 36.39072 -79.67521 34979 ft 482 kts 50°
2026-05-05 01:28 36.42986 -79.60828 34975 ft 481 kts 50°
2026-05-05 01:28 36.46924 -79.54080 34976 ft 481 kts 50°
2026-05-05 01:29 36.50843 -79.47351 34976 ft 481 kts 50°
2026-05-05 01:29 36.54762 -79.40609 34991 ft 481 kts 50°
2026-05-05 01:30 36.58651 -79.33907 35001 ft 481 kts 50°
2026-05-05 01:30 36.62559 -79.27156 34997 ft 480 kts 50°
2026-05-05 01:31 36.66472 -79.20385 34994 ft 480 kts 50°
2026-05-05 01:31 36.70371 -79.13624 34988 ft 480 kts 50°
2026-05-05 01:32 36.74235 -79.06909 35004 ft 480 kts 50°
2026-05-05 01:32 36.78121 -79.00143 34985 ft 480 kts 50°
2026-05-05 01:33 36.82005 -78.93369 34972 ft 479 kts 50°
2026-05-05 01:33 36.85868 -78.86590 34968 ft 479 kts 51°
2026-05-05 01:34 36.89688 -78.79846 34986 ft 478 kts 51°
2026-05-05 01:34 36.93525 -78.73057 34989 ft 478 kts 51°
2026-05-05 01:35 36.97356 -78.66272 34991 ft 478 kts 51°
2026-05-05 01:35 37.01181 -78.59483 34991 ft 477 kts 51°
2026-05-05 01:36 37.05002 -78.52688 34984 ft 477 kts 51°
2026-05-05 01:36 37.08813 -78.45897 34980 ft 476 kts 51°
2026-05-05 01:37 37.12620 -78.39099 34982 ft 476 kts 51°
2026-05-05 01:37 37.16396 -78.32344 34990 ft 476 kts 51°
2026-05-05 01:38 37.20183 -78.25534 34981 ft 476 kts 53°
2026-05-05 01:38 37.23527 -78.18335 34984 ft 478 kts 58°
2026-05-05 01:39 37.26670 -78.10974 34971 ft 478 kts 58°
2026-05-05 01:39 37.29854 -78.03633 34970 ft 477 kts 58°
2026-05-05 01:40 37.33042 -77.96385 34974 ft 477 kts 57°
2026-05-05 01:40 37.36249 -77.89095 34989 ft 476 kts 58°
2026-05-05 01:41 37.39457 -77.81777 34979 ft 476 kts 58°
2026-05-05 01:41 37.42661 -77.74483 34984 ft 476 kts 58°
2026-05-05 01:42 37.45847 -77.67234 34984 ft 476 kts 58°
2026-05-05 01:42 37.49068 -77.59886 34981 ft 477 kts 58°
2026-05-05 01:43 37.52244 -77.52619 34984 ft 477 kts 58°
2026-05-05 01:43 37.55441 -77.45287 34978 ft 477 kts 59°
2026-05-05 01:44 37.58631 -77.37952 34970 ft 477 kts 59°
2026-05-05 01:44 37.61817 -77.30610 34973 ft 477 kts 59°
2026-05-05 01:45 37.65003 -77.23255 34975 ft 477 kts 59°
2026-05-05 01:45 37.68346 -77.16118 34960 ft 472 kts 47°
2026-05-05 01:46 37.73089 -77.10569 34972 ft 461 kts 28°
2026-05-05 01:46 37.78671 -77.06669 34978 ft 458 kts 23°
2026-05-05 01:47 37.84303 -77.02879 34979 ft 459 kts 24°
2026-05-05 01:47 37.89883 -76.99049 34981 ft 459 kts 24°
2026-05-05 01:48 37.95499 -76.95149 34991 ft 460 kts 25°
2026-05-05 01:48 38.01119 -76.91231 34962 ft 461 kts 25°
2026-05-05 01:49 38.06748 -76.87303 34956 ft 462 kts 25°
2026-05-05 01:49 38.12383 -76.83364 34961 ft 462 kts 25°
2026-05-05 01:50 38.18014 -76.79421 34958 ft 462 kts 25°
2026-05-05 01:50 38.23595 -76.75498 34947 ft 461 kts 27°
2026-05-05 01:51 38.28727 -76.70537 34956 ft 465 kts 38°
2026-05-05 01:51 38.33588 -76.65106 34948 ft 464 kts 38°
2026-05-05 01:52 38.38484 -76.59737 34958 ft 463 kts 37°
2026-05-05 01:52 38.43388 -76.54414 34947 ft 462 kts 37°
2026-05-05 01:53 38.48310 -76.49133 34947 ft 461 kts 37°
2026-05-05 01:53 38.53190 -76.43907 34948 ft 461 kts 37°
2026-05-05 01:54 38.58096 -76.38633 34960 ft 461 kts 37°
2026-05-05 01:54 38.63004 -76.33343 34955 ft 461 kts 37°
2026-05-05 01:55 38.67903 -76.28049 34952 ft 461 kts 37°
2026-05-05 01:55 38.72773 -76.22778 34956 ft 461 kts 37°
2026-05-05 01:56 38.77670 -76.17468 34964 ft 461 kts 37°
2026-05-05 01:56 38.82569 -76.12146 34959 ft 461 kts 38°
2026-05-05 01:57 38.87476 -76.06805 34954 ft 462 kts 38°
2026-05-05 01:57 38.92372 -76.01465 34948 ft 462 kts 38°
2026-05-05 01:58 38.97256 -75.96107 34963 ft 462 kts 39°
2026-05-05 01:58 39.01971 -75.90543 34930 ft 463 kts 40°
2026-05-05 01:59 39.06660 -75.84881 34933 ft 462 kts 40°
2026-05-05 01:59 39.11365 -75.79243 34918 ft 462 kts 40°
2026-05-05 02:00 39.16072 -75.73625 34939 ft 461 kts 40°
2026-05-05 02:00 39.20781 -75.67997 34921 ft 460 kts 40°
2026-05-05 02:01 39.25443 -75.62412 34928 ft 460 kts 40°
2026-05-05 02:01 39.30125 -75.56795 34928 ft 459 kts 40°
2026-05-05 02:02 39.34786 -75.51171 34940 ft 458 kts 40°
2026-05-05 02:02 39.39436 -75.45538 34924 ft 458 kts 40°
2026-05-05 02:03 39.44076 -75.39907 34924 ft 457 kts 40°
2026-05-05 02:03 39.48713 -75.34271 34926 ft 457 kts 40°
2026-05-05 02:04 39.53348 -75.28628 34927 ft 457 kts 40°
2026-05-05 02:04 39.57978 -75.22979 34926 ft 457 kts 40°
2026-05-05 02:05 39.62605 -75.17321 34928 ft 457 kts 40°
2026-05-05 02:05 39.67201 -75.11693 34929 ft 457 kts 40°
2026-05-05 02:06 39.71959 -75.06231 34938 ft 456 kts 37°
2026-05-05 02:06 39.76819 -75.00923 34929 ft 457 kts 38°
2026-05-05 02:07 39.81630 -74.95520 34941 ft 457 kts 38°
2026-05-05 02:07 39.86418 -74.90063 34944 ft 457 kts 38°
2026-05-05 02:08 39.90419 -74.85553 34943 ft 456 kts 36°
2026-05-05 02:08 39.95573 -74.80776 34953 ft 454 kts 31°
2026-05-05 02:09 40.00740 -74.76024 34934 ft 457 kts 38°
2026-05-05 02:09 40.05045 -74.69871 34945 ft 460 kts 47°
2026-05-05 02:10 40.09141 -74.63460 34921 ft 460 kts 47°
2026-05-05 02:10 40.13232 -74.57110 34925 ft 459 kts 46°
2026-05-05 02:11 40.17371 -74.50752 34913 ft 458 kts 46°
2026-05-05 02:11 40.19419 -74.47611 34762 ft 451 kts 46°
2026-05-05 02:11 40.21443 -74.44506 34273 ft 447 kts 46°
2026-05-05 02:12 40.23462 -74.41409 33578 ft 448 kts 46°
2026-05-05 02:12 40.27534 -74.35156 31813 ft 455 kts 47°
2026-05-05 02:12 40.29592 -74.31989 30978 ft 458 kts 47°
2026-05-05 02:13 40.31662 -74.28799 30113 ft 461 kts 47°
2026-05-05 02:13 40.33747 -74.25582 29106 ft 464 kts 47°
2026-05-05 02:13 40.35840 -74.22347 28089 ft 466 kts 47°
2026-05-05 02:13 40.37911 -74.19143 27326 ft 464 kts 47°
2026-05-05 02:14 40.40003 -74.15899 27146 ft 459 kts 47°
2026-05-05 02:14 40.42053 -74.12721 27011 ft 466 kts 47°
2026-05-05 02:14 40.44166 -74.09446 26951 ft 472 kts 47°
2026-05-05 02:14 40.46294 -74.06142 26954 ft 475 kts 47°
2026-05-05 02:15 40.48428 -74.02824 26938 ft 475 kts 47°
2026-05-05 02:15 40.50562 -73.99502 26932 ft 474 kts 47°
2026-05-05 02:15 40.52685 -73.96192 26940 ft 473 kts 47°
2026-05-05 02:15 40.54801 -73.92889 26941 ft 472 kts 47°
2026-05-05 02:16 40.56912 -73.89592 26946 ft 471 kts 47°
2026-05-05 02:16 40.59021 -73.86294 26951 ft 470 kts 47°
2026-05-05 02:16 40.61126 -73.83001 26952 ft 470 kts 47°
2026-05-05 02:16 40.63235 -73.79697 26962 ft 470 kts 47°
2026-05-05 02:17 40.65338 -73.76399 26956 ft 470 kts 47°
2026-05-05 02:17 40.67441 -73.73098 26956 ft 471 kts 47°
2026-05-05 02:17 40.69519 -73.69831 26955 ft 472 kts 47°
2026-05-05 02:17 40.71628 -73.66513 26952 ft 472 kts 47°
2026-05-05 02:18 40.73744 -73.63181 26951 ft 473 kts 47°
2026-05-05 02:18 40.75854 -73.59852 26957 ft 473 kts 47°
2026-05-05 02:18 40.77965 -73.56520 26957 ft 474 kts 47°
2026-05-05 02:18 40.80058 -73.53210 26899 ft 463 kts 47°
2026-05-05 02:19 40.82091 -73.49989 26608 ft 450 kts 47°
2026-05-05 02:19 40.84067 -73.46858 26343 ft 438 kts 46°
2026-05-05 02:19 40.85995 -73.43807 26079 ft 427 kts 46°
2026-05-05 02:19 40.87919 -73.40886 25820 ft 416 kts 45°
2026-05-05 02:20 40.89828 -73.38076 25567 ft 407 kts 44°
2026-05-05 02:20 40.91710 -73.35331 25310 ft 398 kts 44°
2026-05-05 02:20 40.93542 -73.32655 25050 ft 387 kts 44°
2026-05-05 02:20 40.95328 -73.30034 24817 ft 382 kts 44°
2026-05-05 02:21 40.97110 -73.27411 24594 ft 382 kts 44°
2026-05-05 02:21 40.98886 -73.24789 24366 ft 383 kts 44°
2026-05-05 02:21 41.00638 -73.22195 24142 ft 383 kts 44°
2026-05-05 02:21 41.02417 -73.19556 23917 ft 384 kts 44°
2026-05-05 02:22 41.04195 -73.16913 23688 ft 384 kts 44°
2026-05-05 02:22 41.05973 -73.14267 23448 ft 384 kts 44°
2026-05-05 02:22 41.07746 -73.11626 23154 ft 384 kts 44°
2026-05-05 02:22 41.09510 -73.08995 22984 ft 380 kts 44°
2026-05-05 02:23 41.11252 -73.06393 22950 ft 375 kts 44°
2026-05-05 02:23 41.12989 -73.03800 22957 ft 376 kts 44°
2026-05-05 02:23 41.14736 -73.01192 22969 ft 379 kts 44°
2026-05-05 02:23 41.16466 -72.98604 22958 ft 380 kts 44°
2026-05-05 02:24 41.18223 -72.95975 22955 ft 380 kts 44°
2026-05-05 02:24 41.19976 -72.93347 22954 ft 381 kts 45°
2026-05-05 02:24 41.21590 -72.90527 22918 ft 383 kts 56°
2026-05-05 02:24 41.22849 -72.87423 22830 ft 382 kts 59°
2026-05-05 02:25 41.24045 -72.84254 22733 ft 384 kts 60°
2026-05-05 02:25 41.25230 -72.81070 22637 ft 385 kts 60°
2026-05-05 02:25 41.26421 -72.77879 22556 ft 384 kts 60°
2026-05-05 02:25 41.27614 -72.74703 22452 ft 384 kts 60°
2026-05-05 02:26 41.28811 -72.71537 22354 ft 383 kts 60°
2026-05-05 02:26 41.29994 -72.68419 22287 ft 383 kts 60°
2026-05-05 02:26 41.31195 -72.65258 22203 ft 382 kts 60°
2026-05-05 02:26 41.32396 -72.62101 22112 ft 382 kts 60°
2026-05-05 02:27 41.33595 -72.58947 22025 ft 382 kts 60°
2026-05-05 02:27 41.34793 -72.55792 21935 ft 382 kts 60°
2026-05-05 02:27 41.35991 -72.52633 21846 ft 382 kts 60°
2026-05-05 02:27 41.37188 -72.49472 21757 ft 382 kts 60°
2026-05-05 02:28 41.38381 -72.46320 21663 ft 381 kts 60°
2026-05-05 02:28 41.39558 -72.43205 21577 ft 381 kts 60°
2026-05-05 02:28 41.40751 -72.40047 21491 ft 381 kts 60°
2026-05-05 02:28 41.41938 -72.36896 21402 ft 381 kts 60°
2026-05-05 02:29 41.43127 -72.33742 21306 ft 381 kts 60°
2026-05-05 02:29 41.44313 -72.30589 21216 ft 380 kts 60°
2026-05-05 02:29 41.45498 -72.27439 21131 ft 380 kts 60°
2026-05-05 02:29 41.46681 -72.24288 21041 ft 380 kts 60°
2026-05-05 02:30 41.47863 -72.21139 20944 ft 379 kts 60°
2026-05-05 02:30 41.49041 -72.17961 20677 ft 384 kts 60°
2026-05-05 02:30 41.50209 -72.14769 20407 ft 381 kts 61°
2026-05-05 02:30 41.51359 -72.11612 20148 ft 377 kts 61°
2026-05-05 02:31 41.52489 -72.08512 19656 ft 379 kts 61°
2026-05-05 02:31 41.53666 -72.05294 18624 ft 395 kts 61°
2026-05-05 02:31 41.54903 -72.01912 17505 ft 412 kts 62°
2026-05-05 02:31 41.56115 -71.98456 17218 ft 414 kts 65°
2026-05-05 02:32 41.57199 -71.94879 17096 ft 415 kts 66°
2026-05-05 02:32 41.58238 -71.91298 17006 ft 411 kts 67°
2026-05-05 02:32 41.59276 -71.87753 16978 ft 407 kts 66°
2026-05-05 02:32 41.60309 -71.84257 16644 ft 401 kts 66°
2026-05-05 02:33 41.61331 -71.80803 16094 ft 400 kts 66°
2026-05-05 02:33 41.62355 -71.77339 15473 ft 400 kts 66°
2026-05-05 02:33 41.63375 -71.73882 14940 ft 398 kts 66°
2026-05-05 02:33 41.64383 -71.70458 14499 ft 394 kts 66°
2026-05-05 02:34 41.65369 -71.67106 14045 ft 391 kts 66°
2026-05-05 02:34 41.66358 -71.63743 13548 ft 388 kts 66°
2026-05-05 02:34 41.67341 -71.60394 13049 ft 384 kts 67°
2026-05-05 02:34 41.68312 -71.57081 12577 ft 380 kts 67°
2026-05-05 02:35 41.69272 -71.53800 12105 ft 376 kts 67°
2026-05-05 02:35 41.70220 -71.50560 11640 ft 373 kts 67°
2026-05-05 02:35 41.71145 -71.47390 11200 ft 370 kts 67°
2026-05-05 02:35 41.72085 -71.44167 11057 ft 371 kts 67°
2026-05-05 02:36 41.73154 -71.41033 11014 ft 368 kts 60°
2026-05-05 02:36 41.74433 -71.38099 11008 ft 362 kts 57°
2026-05-05 02:36 41.75729 -71.35235 11020 ft 366 kts 57°
2026-05-05 02:36 41.77027 -71.32287 11024 ft 368 kts 58°
2026-05-05 02:37 41.78306 -71.29318 11010 ft 368 kts 58°
2026-05-05 02:37 41.79575 -71.26340 11007 ft 367 kts 58°
2026-05-05 02:37 41.80837 -71.23371 11008 ft 366 kts 58°
2026-05-05 02:37 41.82099 -71.20402 11012 ft 366 kts 58°
2026-05-05 02:38 41.83361 -71.17435 11013 ft 366 kts 58°
2026-05-05 02:38 41.84624 -71.14461 11018 ft 366 kts 58°
2026-05-05 02:38 41.85872 -71.11523 11031 ft 367 kts 58°
2026-05-05 02:38 41.87148 -71.08557 11020 ft 367 kts 58°
2026-05-05 02:39 41.88433 -71.05591 11019 ft 368 kts 58°
2026-05-05 02:39 41.89718 -71.02625 11025 ft 368 kts 58°
2026-05-05 02:39 41.91008 -70.99643 11013 ft 369 kts 58°
2026-05-05 02:39 41.92292 -70.96667 11021 ft 369 kts 58°
2026-05-05 02:40 41.93570 -70.93698 10926 ft 361 kts 58°
2026-05-05 02:40 41.94798 -70.90840 10755 ft 343 kts 58°
2026-05-05 02:40 41.95956 -70.88141 10619 ft 324 kts 58°
2026-05-05 02:40 41.97052 -70.85587 10478 ft 307 kts 58°
2026-05-05 02:41 41.98108 -70.83129 10076 ft 302 kts 58°
2026-05-05 02:41 41.99157 -70.80683 9525 ft 302 kts 58°
2026-05-05 02:41 42.00198 -70.78255 9043 ft 301 kts 58°
2026-05-05 02:41 42.01280 -70.75829 8635 ft 300 kts 52°
2026-05-05 02:42 42.02603 -70.73702 8355 ft 295 kts 44°
2026-05-05 02:42 42.04009 -70.71699 8059 ft 292 kts 44°
2026-05-05 02:42 42.05371 -70.69750 8006 ft 280 kts 44°
2026-05-05 02:42 42.06663 -70.67857 7979 ft 267 kts 45°
2026-05-05 02:43 42.07892 -70.66029 7553 ft 272 kts 45°
2026-05-05 02:43 42.09193 -70.64091 6867 ft 287 kts 45°
2026-05-05 02:43 42.10606 -70.62164 6395 ft 288 kts 32°
2026-05-05 02:43 42.12412 -70.61116 5985 ft 281 kts
2026-05-05 02:44 42.14315 -70.60561 5594 ft 280 kts
2026-05-05 02:44 42.16221 -70.60053 5317 ft 277 kts
2026-05-05 02:44 42.18096 -70.59553 5067 ft 273 kts
2026-05-05 02:44 42.19923 -70.59059 4968 ft 261 kts
2026-05-05 02:45 42.21652 -70.58583 4955 ft 246 kts
2026-05-05 02:45 42.23284 -70.58132 4940 ft 232 kts
2026-05-05 02:45 42.24812 -70.57706 4937 ft 216 kts
2026-05-05 02:45 42.26261 -70.57353 4958 ft 211 kts 358°
2026-05-05 02:46 42.27724 -70.57112 4972 ft 216 kts
2026-05-05 02:46 42.29130 -70.56554 4933 ft 203 kts
2026-05-05 02:46 42.30438 -70.56133 4955 ft 188 kts 356°
2026-05-05 02:46 42.31767 -70.56034 4987 ft 199 kts 356°
2026-05-05 02:47 42.33132 -70.56211 4976 ft 197 kts 322°
2026-05-05 02:47 42.34134 -70.57324 4964 ft 179 kts 312°
2026-05-05 02:47 42.35024 -70.58401 4941 ft 164 kts 308°
2026-05-05 02:47 42.35805 -70.59462 4952 ft 155 kts 308°
2026-05-05 02:48 42.36544 -70.60489 4936 ft 147 kts 307°
2026-05-05 02:48 42.37252 -70.61471 4957 ft 151 kts 307°
2026-05-05 02:48 42.38077 -70.62619 5009 ft 184 kts 309°
2026-05-05 02:48 42.38970 -70.63830 4963 ft 183 kts 309°
2026-05-05 02:49 42.39861 -70.65024 4883 ft 178 kts 309°
2026-05-05 02:49 42.40738 -70.66193 4539 ft 177 kts 309°
2026-05-05 02:49 42.41615 -70.67360 4046 ft 177 kts 308°
2026-05-05 02:49 42.42491 -70.68524 3543 ft 178 kts 308°
2026-05-05 02:50 42.43443 -70.69622 3037 ft 183 kts 316°
2026-05-05 02:50 42.44478 -70.70609 2588 ft 180 kts 315°
2026-05-05 02:50 42.45480 -70.71538 2151 ft 175 kts 315°
2026-05-05 02:50 42.46459 -70.72385 1994 ft 158 kts 315°
2026-05-05 02:51 42.47377 -70.73215 1961 ft 152 kts 307°
2026-05-05 02:51 42.48053 -70.74222 1967 ft 144 kts 296°
2026-05-05 02:51 42.48565 -70.75332 1959 ft 136 kts 285°
2026-05-05 02:51 42.48993 -70.76483 1956 ft 137 kts 286°
2026-05-05 02:52 42.49423 -70.77636 1958 ft 137 kts 286°
2026-05-05 02:52 42.49852 -70.78787 1959 ft 137 kts 286°
2026-05-05 02:52 42.50280 -70.79938 1960 ft 137 kts 286°
2026-05-05 02:52 42.50639 -70.81112 1955 ft 130 kts 272°
2026-05-05 02:53 42.50813 -70.82311 1957 ft 130 kts 272°
2026-05-05 02:53 42.50868 -70.83507 1962 ft 124 kts 259°
2026-05-05 02:53 42.50778 -70.84672 1955 ft 124 kts 253°
2026-05-05 02:53 42.50607 -70.85810 1968 ft 122 kts 253°
2026-05-05 02:54 42.50450 -70.86894 1962 ft 119 kts 254°
2026-05-05 02:54 42.50278 -70.88031 1973 ft 126 kts 250°
2026-05-05 02:54 42.49966 -70.89120 1968 ft 124 kts 245°
2026-05-05 02:54 42.49636 -70.90211 1971 ft 125 kts 243°
2026-05-05 02:55 42.49265 -70.91285 1964 ft 126 kts 242°
2026-05-05 02:55 42.48886 -70.92352 1964 ft 127 kts 240°
2026-05-05 02:55 42.48481 -70.93409 1961 ft 126 kts 240°
2026-05-05 02:55 42.48046 -70.94431 1952 ft 125 kts 229°
2026-05-05 02:56 42.47287 -70.94985 1956 ft 123 kts 211°
2026-05-05 02:56 42.46515 -70.95492 1907 ft 125 kts 213°
2026-05-05 02:56 42.45728 -70.95987 1794 ft 124 kts 210°
2026-05-05 02:56 42.44931 -70.96411 1631 ft 122 kts 208°
2026-05-05 02:57 42.44130 -70.96810 1460 ft 126 kts 206°
2026-05-05 02:57 42.43272 -70.97212 1244 ft 134 kts 203°
2026-05-05 02:57 42.42404 -70.97604 1084 ft 129 kts 203°
2026-05-05 02:57 42.41571 -70.98027 869 ft 129 kts 205°
2026-05-05 02:58 42.40689 -70.98495 777 ft 138 kts 202°
2026-05-05 02:58 42.39744 -70.98926 534 ft 146 kts 201°
2026-05-05 02:58 42.38808 -70.99382 396 ft 141 kts 200°
2026-05-05 02:58 42.37880 -70.99834 155 ft 142 kts 201°
2026-05-05 02:59 42.36962 -71.00268 33 ft 134 kts 200°
2026-05-05 02:59 42.36193 -71.00657 27 ft 96 kts 200°
2026-05-05 02:59 42.35816 -71.00836 27 ft 46 kts 199°
2026-05-05 02:59 42.35642 -71.00971 26 ft 22 kts 248°
2026-05-05 03:00 42.35650 -71.01146 26 ft 7 kts 295°